This is the latest recevied weather packets stored in our database for station/object KB1QVF. If no packets are shown the sender has not sent any weather packets the latest 10 day(s).
| Time | Temp. | Humidity | Pressure | Rain* | Wind** | Luminosity | Snow |
|---|---|---|---|---|---|---|---|
| 1777563255 | 9.44° C | 98% | 1008.9 hPa | 0 mm | - | 105 W/m² | - |
| 1777562952 | 9.44° C | 98% | 1009 hPa | 0 mm | - | 121 W/m² | - |
| 1777562648 | 8.89° C | 98% | 1009 hPa | 0 mm | - | 130 W/m² | - |
| 1777562348 | 8.89° C | 98% | 1009.1 hPa | 0 mm | - | 90 W/m² | - |
| 1777562044 | 8.89° C | 98% | 1009.2 hPa | 0 mm | - | 90 W/m² | - |
| 1777561741 | 8.89° C | 98% | 1009.1 hPa | 0 mm | - | 84 W/m² | - |
| 1777561436 | 8.89° C | 98% | 1009 hPa | 1.78 mm | - | 87 W/m² | - |
| 1777561132 | 8.89° C | 98% | 1008.9 hPa | 1.78 mm | - | 96 W/m² | - |
| 1777560827 | 8.89° C | 98% | 1009.1 hPa | 0 mm | - | 89 W/m² | - |
| 1777560525 | 8.89° C | 98% | 1008.9 hPa | 0 mm | - | 162 W/m² | - |
| 1777560223 | 8.89° C | 98% | 1009 hPa | 0 mm | - | 126 W/m² | - |
| 1777559919 | 8.89° C | 98% | 1009 hPa | 0 mm | - | 110 W/m² | - |
| 1777559614 | 8.89° C | 98% | 1009.1 hPa | 0 mm | - | 110 W/m² | - |
| 1777559313 | 8.89° C | 98% | 1009 hPa | 0 mm | - | 121 W/m² | - |
| 1777559008 | 8.89° C | 98% | 1009.2 hPa | 1.27 mm | - | 103 W/m² | - |
| 1777558704 | 8.89° C | 98% | 1009.3 hPa | 1.27 mm | - | 131 W/m² | - |
| 1777558400 | 8.33° C | 98% | 1009.3 hPa | 0 mm | - | 118 W/m² | - |
| 1777558096 | 8.33° C | 98% | 1009.3 hPa | 0 mm | - | 124 W/m² | - |
| 1777557793 | 8.33° C | 98% | 1009.5 hPa | 0 mm | - | 71 W/m² | - |
| 1777557490 | 8.33° C | 98% | 1009.4 hPa | 0 mm | - | 54 W/m² | - |
| 1777557186 | 8.33° C | 98% | 1009.5 hPa | 0 mm | - | 54 W/m² | - |
| 1777556881 | 8.33° C | 98% | 1009.4 hPa | 0 mm | - | 89 W/m² | - |
| 1777556578 | 8.33° C | 98% | 1009.4 hPa | 1.78 mm | - | 85 W/m² | - |
| 1777556277 | 8.33° C | 98% | 1009.3 hPa | 1.78 mm | - | 57 W/m² | - |
| 1777555974 | 8.33° C | 98% | 1009.6 hPa | 0 mm | - | 64 W/m² | - |
* Rain latest hour (hover to see other rain measurements)
** Current wind speed in m/s (hover to see current wind gust speed)